Theta_e
334 333 333 333 333 332 332 333 334 333 332 332 332 332 330 330 329 329 328 329 327 327 326 325 324 324 326 327 327 328 327 327 328 329 327 326 324 326 328 330 330 329 326
333 332 333 332 332 331 333 334 333 333 331 331 330 329 329 330 330 328 329 330 328 327 327 326 325 324 328 328 327 328 328 328 328 328 327 327 326 326 325 324 326 322 320
331 333 333 333 333 333 332 333 333 332 332 331 330 330 330 328 328 329 330 330 329 326 327 327 328 329 328 328 328 328 328 327 327 327 325 325 324 323 322 321 321 321 321
332 333 333 332 332 333 332 332 332 332 331 331 330 330 329 329 329 330 330 329 327 327 326 328 329 328 326 327 327 326 327 326 326 326 324 323 322 322 321 320 319 320 320
333 333 331 333 332 332 333 333 332 331 331 331 330 330 331 330 330 330 331 329 329 330 330 328 329 328 327 326 326 326 325 324 325 325 324 323 323 322 320 319 318 317 318
333 333 331 331 331 332 332 332 332 331 330 331 330 330 331 330 330 330 330 330 330 329 329 329 330 328 326 327 327 327 325 325 324 324 324 323 322 321 319 317 316 317 315
333 332 331 330 331 333 332 331 331 331 330 330 329 329 329 329 329 329 328 328 328 328 330 329 329 328 328 328 327 326 325 325 325 323 323 322 319 319 318 318 317 318 317
333 332 331 330 330 332 332 331 331 330 330 330 329 329 328 329 328 328 327 327 330 330 330 328 329 328 328 326 325 324 323 323 323 322 321 320 320 319 320 319 318 317 316
332 333 331 329 330 332 332 331 331 330 330 329 328 326 327 328 329 327 327 328 329 329 329 328 328 327 326 325 324 323 323 322 321 321 320 320 320 321 321 319 316 316 315
332 333 331 330 330 331 332 331 331 330 330 329 326 326 325 327 328 327 327 327 327 327 328 328 328 326 325 324 324 322 322 322 321 321 320 321 322 321 319 318 318 315 315
333 332 331 330 330 330 331 330 330 330 329 326 325 325 326 326 327 327 326 326 325 324 324 325 326 326 325 324 324 322 322 322 322 321 320 320 320 320 319 318 316 316 317
328 332 332 331 331 331 331 330 329 330 328 326 325 325 325 326 327 325 325 325 324 324 324 324 324 325 324 325 324 323 323 322 321 320 320 320 320 319 321 319 317 316 318
328 330 331 331 331 332 331 331 329 330 328 327 325 325 325 326 326 326 325 325 324 324 325 325 325 324 324 325 325 324 323 322 322 321 320 320 320 320 323 322 321 323 324
329 330 330 330 331 331 331 330 330 329 328 328 326 324 325 324 325 326 326 325 323 325 324 325 325 325 325 325 325 324 324 323 324 323 322 322 322 320 323 322 323 324 323
330 329 328 328 330 331 331 331 330 329 328 328 326 326 325 324 325 325 325 325 322 324 323 322 324 325 324 322 323 325 324 324 323 323 324 323 324 323 321 321 323 323 321
329 330 329 328 328 330 331 331 330 328 327 327 327 327 326 325 325 325 325 325 322 322 323 322 324 323 322 322 323 325 324 324 324 324 324 324 324 325 323 321 321 323 323
330 331 330 329 328 327 329 329 327 330 328 328 328 328 327 325 325 325 325 324 324 321 322 322 324 325 323 323 323 324 325 325 325 324 324 324 325 325 326 326 325 325 325
330 332 331 331 330 328 326 325 326 324 325 330 329 329 328 326 325 325 325 326 322 320 321 322 322 324 325 325 326 325 326 326 325 325 325 325 325 326 326 326 325 325 325
328 330 331 332 331 330 328 327 324 322 323 328 330 329 329 327 326 324 324 327 325 322 321 323 325 322 323 325 325 325 323 324 325 325 325 325 325 326 325 324 324 324 324
328 328 329 329 330 331 329 327 323 320 320 325 329 330 329 328 327 325 324 325 327 326 325 324 323 326 325 320 323 323 323 324 326 326 325 325 325 325 324 324 323 322 320
327 327 327 327 328 328 330 329 327 324 321 319 325 331 331 329 327 326 326 324 325 327 327 327 327 328 328 328 326 321 320 320 322 324 324 323 323 324 324 324 321 319 317
326 326 326 326 327 326 326 329 329 328 326 324 320 321 329 330 326 326 326 325 325 326 326 327 327 327 327 328 329 329 327 325 324 322 322 323 323 323 322 320 320 319 318
328 326 326 326 325 326 326 325 327 328 329 328 326 323 321 325 325 325 326 326 326 326 326 326 327 327 327 327 328 329 329 329 327 327 323 323 323 323 322 321 321 320 318
328 327 326 326 326 325 325 324 324 326 326 328 328 326 325 323 322 323 324 324 326 326 326 326 326 326 326 326 325 326 326 327 328 326 326 323 322 322 322 321 321 321 321
331 329 327 327 326 327 325 324 324 324 324 324 327 327 326 326 324 323 323 323 323 322 322 322 323 324 325 326 327 328 328 328 327 326 324 324 324 323 322 321 321 321 321
331 331 330 327 327 327 326 326 325 324 324 323 323 325 325 325 326 325 324 323 322 322 322 321 320 319 319 319 323 327 328 325 323 322 322 321 321 322 322 322 322 321 321
Wind_Speed
20 16 14 11 9 7 7 7 6 7 8 8 9 8 10 9 9 7 5 6 7 8 7 7 6 7 7 9 7 13 12 16 8 8 16 16 11 15 19 24 44 45 47
20 16 13 12 9 8 7 8 6 8 9 9 9 10 9 11 8 5 5 6 8 5 7 6 7 9 8 11 12 16 15 17 23 13 15 16 20 25 31 35 40 42 40
18 15 14 12 10 9 8 7 6 8 10 10 7 8 7 10 5 5 4 5 5 5 6 6 6 10 12 14 13 15 20 26 25 21 14 19 19 33 33 34 38 40 41
19 17 17 11 11 10 8 8 6 9 11 10 9 9 9 8 6 5 4 6 8 5 6 7 10 17 16 14 16 19 25 26 24 21 21 21 22 27 35 36 32 34 36
23 21 15 14 11 11 9 8 6 9 12 10 10 10 8 8 8 7 7 9 9 9 8 13 11 16 14 11 12 18 23 21 22 21 20 19 22 26 28 29 33 31 31
23 21 20 17 12 11 11 10 10 9 13 11 11 13 12 10 9 9 9 12 11 11 12 11 10 14 15 13 14 17 23 27 24 22 18 22 20 24 30 31 34 28 7
26 23 22 19 16 13 12 13 12 12 14 16 14 13 13 12 10 9 9 9 8 8 8 8 7 9 15 15 15 17 21 25 30 29 27 26 28 34 35 31 27 23 13
26 22 22 18 16 16 15 15 14 13 14 16 13 12 12 12 10 10 8 8 10 10 9 8 11 15 18 20 20 21 21 24 29 31 34 33 40 36 36 33 30 20 25
25 21 23 19 20 19 17 16 15 15 15 14 12 11 12 13 11 10 10 9 12 13 10 10 14 15 15 20 25 26 26 25 26 34 37 39 43 45 40 35 23 26 16
26 24 27 23 24 21 19 19 16 17 16 14 12 9 12 13 11 11 11 11 11 12 12 13 13 15 18 22 27 26 26 26 29 32 34 41 41 33 29 25 27 27 19
31 28 26 24 27 21 20 20 18 18 18 14 12 13 12 11 11 8 9 11 10 10 11 11 11 19 22 23 25 24 25 27 28 30 29 31 26 23 20 19 22 30 22
24 28 27 25 26 23 22 21 19 21 20 17 16 13 10 9 9 10 8 11 12 16 14 14 14 16 23 23 23 23 28 29 29 26 25 24 23 23 18 18 18 21 14
25 30 29 30 27 25 22 22 22 22 18 16 18 14 12 9 9 9 11 12 14 16 14 12 17 17 22 21 21 25 28 26 27 24 19 18 26 27 18 18 17 12 13
29 29 31 32 28 26 21 22 23 24 19 15 15 15 15 12 13 14 15 17 15 16 16 17 20 18 19 23 23 26 27 26 25 24 22 21 22 25 20 20 15 10 8
30 30 29 31 30 28 23 22 22 24 27 26 24 23 21 19 19 16 20 21 18 18 19 17 18 20 23 25 23 23 24 23 25 23 21 22 21 23 25 20 18 15 12
26 26 27 28 27 29 26 20 18 19 24 22 21 22 22 17 20 16 21 21 17 19 18 18 22 22 20 23 22 25 25 25 26 27 26 28 25 23 23 24 24 22 20
28 26 27 27 26 26 28 25 19 18 21 21 19 20 19 19 22 22 20 18 17 19 18 18 22 24 21 22 24 26 26 27 26 28 30 29 27 24 24 26 26 26 24
33 35 31 26 26 26 28 29 26 22 21 26 23 22 19 20 24 25 22 20 21 21 20 20 20 23 24 27 26 23 23 23 25 29 28 29 27 27 27 28 29 30 30
33 32 31 29 29 29 29 29 27 26 24 26 24 25 23 22 25 28 26 26 26 26 23 23 21 23 26 27 27 26 24 21 29 31 32 32 33 32 32 31 31 32 32
34 34 31 30 28 30 26 25 25 26 26 26 29 30 28 27 30 32 33 31 27 28 28 28 27 25 25 28 31 31 29 26 27 32 34 36 37 36 35 35 35 32 33
31 38 37 32 30 29 29 26 26 26 25 26 30 35 36 36 35 37 38 39 34 33 32 33 32 30 27 28 31 33 35 36 36 36 36 36 34 36 38 39 37 35 33
26 33 37 31 32 29 28 27 28 27 27 27 30 33 36 38 34 37 40 42 43 41 39 37 36 36 36 34 31 32 33 37 39 39 39 39 40 41 39 38 39 37 36
28 25 30 28 28 31 32 30 28 28 27 28 30 31 38 40 35 36 39 42 43 44 43 42 41 40 40 39 39 39 36 34 33 39 41 41 40 40 41 40 41 36 35
21 24 26 26 24 24 27 26 28 30 29 29 29 33 38 42 38 40 42 43 43 44 44 43 45 45 43 43 43 44 44 42 41 33 40 44 43 42 41 40 40 41 41
12 21 24 27 26 28 27 26 25 29 31 31 30 31 39 41 40 41 42 42 43 43 44 45 45 44 46 46 44 42 41 40 40 39 38 39 44 44 43 42 41 40 39
23 23 11 17 27 27 30 29 31 31 31 32 34 37 40 41 44 45 44 42 42 43 44 43 44 44 46 47 50 49 46 42 39 37 36 40 42 43 43 42 41 40 40
Wind_Direction
153 159 168 162 163 168 170 171 179 180 172 182 179 180 172 172 181 192 199 198 196 178 185 189 199 200 192 188 196 188 182 170 127 116 128 145 141 154 145 153 148 154 153
163 171 169 164 164 164 158 168 181 179 167 176 167 168 183 182 188 201 202 197 184 200 185 199 189 194 197 192 193 175 175 169 138 130 126 140 149 144 134 133 140 143 146
166 172 161 162 165 164 161 164 174 176 176 178 173 165 167 174 190 195 213 175 178 184 177 165 159 168 148 150 164 158 152 150 136 135 126 129 128 131 125 126 129 128 139
169 167 156 154 167 168 162 159 169 178 184 182 172 162 160 162 178 174 168 141 148 158 165 156 135 139 142 139 143 144 148 140 142 129 130 129 127 126 126 122 116 130 137
175 168 155 167 165 166 156 154 164 178 178 173 156 155 160 159 156 156 141 143 144 130 139 156 146 147 145 145 149 158 151 148 144 137 138 138 136 137 134 130 127 128 136
178 172 161 159 164 170 158 151 163 164 162 158 149 145 150 150 147 152 143 135 134 124 118 145 169 171 166 177 196 188 178 156 153 155 144 143 143 135 134 136 136 137 118
180 171 168 167 169 171 163 160 162 159 149 149 150 147 137 142 147 154 145 145 158 149 139 128 122 154 176 164 168 181 179 163 160 152 145 149 138 141 138 141 143 144 145
177 174 167 166 172 168 165 166 162 159 155 159 151 151 148 146 149 139 152 143 135 141 143 130 129 134 143 146 145 128 130 140 147 151 152 148 148 148 151 150 149 136 135
172 178 177 179 172 170 169 167 165 161 157 158 162 154 157 148 148 154 167 155 127 132 143 142 136 137 145 147 140 123 119 124 137 145 149 152 155 161 163 156 133 125 131
177 185 184 184 172 175 173 172 170 168 163 163 160 163 160 150 163 160 165 160 138 130 132 145 152 148 148 156 152 137 122 134 139 140 144 152 160 160 160 160 158 146 147
188 192 185 183 174 172 170 168 165 166 159 156 155 152 152 155 150 162 173 162 155 146 143 146 149 158 152 156 161 147 139 149 149 143 140 148 150 152 159 169 170 165 152
184 191 184 183 171 169 169 168 165 164 165 157 151 152 161 168 166 157 165 157 160 149 142 138 140 154 157 158 162 155 147 147 144 138 141 149 157 157 155 167 178 184 166
181 178 179 174 173 171 169 167 168 171 161 156 154 167 178 174 170 168 166 161 154 147 134 131 144 143 157 160 163 158 152 138 143 144 150 157 173 164 159 167 172 193 222
174 169 168 168 172 173 173 169 173 178 172 164 163 172 180 176 164 158 162 159 151 143 134 128 138 137 146 158 158 161 166 152 163 166 162 167 170 181 180 183 193 207 212
166 164 165 169 171 174 176 176 185 194 191 184 186 185 182 184 178 169 171 165 159 152 143 138 147 144 143 148 151 161 171 162 164 175 176 179 181 187 199 203 207 212 218
162 164 167 170 172 175 178 181 193 198 199 202 203 199 195 194 176 169 170 166 163 162 158 150 150 151 156 160 162 167 178 183 180 183 190 191 190 195 202 210 219 225 228
168 170 172 170 173 176 181 187 191 208 207 208 210 207 204 187 182 173 173 176 174 176 174 170 166 168 169 169 173 178 181 190 190 194 196 198 203 207 210 215 222 229 236
173 175 173 176 178 181 186 195 200 199 206 215 214 210 207 198 189 183 180 179 179 189 190 185 186 186 183 182 183 186 190 197 201 205 205 208 212 218 218 223 226 228 236
175 176 177 179 181 185 189 197 200 199 199 203 203 206 205 201 198 195 193 193 193 199 202 202 200 199 201 201 200 203 207 217 210 212 216 220 224 225 227 229 231 234 239
185 184 180 179 181 185 186 188 194 194 195 193 198 202 198 197 198 201 204 207 210 212 211 211 213 213 212 212 214 215 218 219 217 220 224 227 230 229 230 235 236 235 240
183 186 186 185 184 185 188 189 192 194 197 199 199 204 205 199 201 205 209 212 215 220 222 222 221 222 224 227 227 226 228 229 227 226 227 229 230 230 234 237 243 244 243
194 185 186 187 192 193 195 193 195 195 198 202 208 212 210 205 205 207 211 215 219 223 226 227 228 230 230 231 233 237 239 239 240 237 234 234 235 236 237 239 244 245 246
202 197 191 194 195 197 199 201 200 201 202 203 207 209 212 213 215 214 217 220 222 224 227 230 232 234 236 237 237 238 240 244 251 247 243 239 238 239 240 240 242 240 241
199 200 201 199 200 201 201 201 205 208 205 206 203 207 218 216 215 221 225 227 227 229 231 232 233 235 237 239 240 241 242 245 249 253 247 244 243 242 240 238 238 239 242
43 207 205 211 205 200 203 212 212 211 211 211 209 208 218 221 218 223 228 229 232 234 236 237 237 239 240 240 242 242 242 243 245 247 248 246 245 244 245 242 242 243 242
55 53 53 215 217 218 215 217 216 216 215 215 217 215 221 222 224 226 229 231 233 236 240 241 244 243 244 246 244 243 243 243 245 246 249 251 249 246 244 243 242 240 240